{"data":{"norad_id":64777,"intl_designator":"2025-147Y","name":"STARLINK-34547","alt_names":[],"object_type":"PAYLOAD","status":"ACTIVE","operator":null,"country":"US","launch_date":"2025-07-08","launch_site_code":"AFETR","launch_vehicle":null,"mission":null,"orbit_class":"UNKNOWN","rcs_meters":null,"size_class":null,"mass_kg":null,"dimensions":null,"purposes":["comms"],"wikipedia_slug":null,"has_3d_model":false,"image_url":null,"decayed_at":null,"tle_current":{"epoch":"2026-09-20T14:04:21.451296Z","epoch_age_seconds":120534,"freshness":"FRESH","line1":"1 64777U 25147Y   26263.58635939  .00023193  00000+0  69513-3 0  9991","line2":"2 64777  53.1585  53.0516 0001463  79.9225 280.1943 15.34414426 68597","mean_motion":15.34414426,"eccentricity":0.0001463,"inclination_deg":53.1585,"raan_deg":53.0516,"arg_perigee_deg":79.9225,"mean_anomaly_deg":280.1943,"bstar":0.00069513,"rev_number":6859,"period_min":93.846875759235,"perigee_km":461.65955477662,"apogee_km":463.66117208516,"semimajor_km":6840.7973634309,"source":"CELESTRAK","updated_at":"2026-09-21T09:00:35.440648Z"}}}